CW5391 Weather Reports


Display with metric or nautical units.
time (UTC)temp
F
wind
direction
speed
MPH
gust
MPH
rain 1hr
in
rain 24hr
in
rain mn
in
humidity
%
barometer
mb
20260904121832 61 323 0.0 0.0 0.00 0.00 0.00 97 1008.7
20260904121319 61 323 0.0 0.0 0.00 0.00 0.00 97 1008.6
20260904120850 61 323 0.0 0.0 0.00 0.00 0.00 97 1008.6
20260904120358 60 323 0.0 0.0 0.00 0.00 0.00 97 1008.6
20260904115822 60 323 0.0 0.0 0.00 0.00 0.00 97 1008.5
20260904114858 60 323 0.0 0.0 0.00 0.00 0.00 97 1008.5
20260904114330 60 323 0.0 0.0 0.00 0.00 0.00 97 1008.5
20260904113839 60 323 0.0 0.0 0.00 0.00 0.00 97 1008.5
20260904113326 59 323 0.0 0.0 0.00 0.00 0.00 97 1008.5
20260904112828 59 323 327.0 0.0 0.00 0.00 0.00 96 1008.4
20260904112344 59 323 327.0 0.0 0.00 0.00 0.00 96 1008.4
20260904111817 0 323 327.0 0.0 0.00 0.00 0.00 1008.4
20260904111329 0 0.0 0.0 0.00 0.00 0.00 1008.0
20260904110854 0 0.0 0.0 0.00 0.00 0.00 1008.0
20260904110318 0 0.0 0.0 0.00 0.00 0.00 1008.0
20260904105815 0 0.0 0.0 0.00 0.00 0.00 1007.9
20260904105341 0 0.0 0.0 0.00 0.00 0.00 1007.9
20260904104815 0 0.0 0.0 0.00 0.00 0.00 1007.9
20260904103835 0 0.0 0.0 0.00 0.00 0.00 1007.8
20260904103329 0 0.0 0.0 0.00 0.00 0.00 1007.8
20260904102845 0 0.0 0.0 0.00 0.00 0.00 1007.6
20260904102353 60 323 0.0 0.0 0.00 0.00 0.00 96 1007.6
20260904101830 60 323 0.0 0.0 0.00 0.00 0.00 96 1007.6
20260904101332 60 323 0.0 0.0 0.00 0.00 0.00 96 1007.5
20260904100831 60 323 0.0 0.0 0.00 0.00 0.00 96 1007.5
20260904100320 60 323 0.0 0.0 0.00 0.00 0.00 96 1007.5
20260904095834 60 323 0.0 0.0 0.00 0.00 0.00 96 1007.5
20260904095345 60 323 0.0 1.0 0.00 0.00 0.00 96 1007.5
20260904094838 60 323 0.0 1.0 0.00 0.00 0.00 96 1007.5
20260904094314 59 323 0.0 3.0 0.00 0.00 0.00 96 1007.4
20260904093818 60 323 1.0 3.0 0.00 0.00 0.00 95 1007.4
20260904093343 60 121 1.0 3.0 0.00 0.00 0.00 95 1007.4
20260904092832 60 64 1.0 3.0 0.00 0.00 0.00 95 1007.4
20260904092319 60 304 0.0 2.0 0.00 0.00 0.00 96 1007.4
20260904091814 60 121 0.0 1.0 0.00 0.00 0.00 95 1007.4
20260904091336 60 130 0.0 0.0 0.00 0.00 0.00 95 1007.4
20260904090828 60 165 0.0 0.0 0.00 0.00 0.00 95 1007.4
20260904090332 60 213 0.0 0.0 0.00 0.00 0.00 95 1007.4
20260904085817 60 213 0.0 1.0 0.00 0.00 0.00 95 1007.3
20260904085345 61 192 0.0 1.0 0.00 0.00 0.00 96 1007.3
20260904084820 61 158 0.0 1.0 0.00 0.00 0.00 95 1007.3
20260904084401 61 95 0.0 1.0 0.00 0.00 0.00 95 1007.2
20260904083826 61 132 0.0 0.0 0.00 0.00 0.00 95 1007.2
20260904083320 61 132 0.0 2.0 0.00 0.00 0.00 95 1007.2
20260904082825 61 132 1.0 2.0 0.00 0.00 0.00 96 1007.3
20260904082325 60 138 0.0 2.0 0.00 0.00 0.00 96 1007.3
20260904081813 60 136 0.0 0.0 0.00 0.00 0.00 96 1007.3
20260904081328 60 136 0.0 0.0 0.00 0.00 0.00 96 1007.4
20260904080836 60 250 0.0 0.0 0.00 0.00 0.00 95 1007.4
20260904080318 61 250 0.0 0.0 0.00 0.00 0.00 95 1007.4
20260904075830 61 250 0.0 0.0 0.00 0.00 0.00 95 1007.2
20260904075320 61 186 0.0 0.0 0.00 0.00 0.00 95 1007.2
20260904074844 61 186 327.0 0.0 0.00 0.00 0.00 95 1007.2
20260904074327 61 186 327.0 0.0 0.00 0.00 0.00 95 1007.3
20260904073814 0 0.0 0.0 0.00 0.00 0.00 1007.3
20260904073341 0 0.0 0.0 0.00 0.00 0.00 1007.3
20260904072819 0 0.0 0.0 0.00 0.00 0.00 1007.4
20260904072325 0 0.0 0.0 0.00 0.00 0.00 1007.4
20260904071817 0 0.0 0.0 0.00 0.00 0.00 1007.4
20260904071333 0 0.0 0.0 0.00 0.00 0.00 1007.4
20260904070825 0 0.0 0.0 0.00 0.00 0.00 1007.4
20260904070322 0 0.0 0.0 0.00 0.00 0.00 1007.4
20260904065847 0 0.0 0.0 0.00 0.00 0.00 1007.4
20260904065330 0 0.0 0.0 0.00 0.00 0.00 1007.4
20260904064317 0 0.0 0.0 0.00 0.00 0.00 1007.4
20260904063830 0 0.0 0.0 0.00 0.00 0.00 1007.4
20260904063317 0 0.0 0.0 0.00 0.00 0.00 1007.4
20260904062835 0 0.0 0.0 0.00 0.00 0.00 1007.4
20260904062344 0 0.0 0.0 0.00 0.00 0.00 1007.4
20260904061815 0 0.0 0.0 0.00 0.00 0.00 1007.4
20260904061352 62 126 0.0 2.0 0.00 0.00 0.00 92 1007.5
20260904060829 62 126 0.0 2.0 0.00 0.00 0.00 92 1007.5
20260904060326 62 126 0.0 0.0 0.00 0.00 0.00 92 1007.5
20260904055827 62 126 0.0 0.0 0.00 0.00 0.00 92 1007.8
20260904055339 62 126 0.0 0.0 0.00 0.00 0.00 92 1007.8
20260904054824 63 126 0.0 0.0 0.00 0.00 0.00 92 1007.8
20260904054333 63 126 0.0 0.0 0.00 0.00 0.00 92 1007.8
20260904053843 63 126 0.0 1.0 0.00 0.00 0.00 92 1007.8
20260904053318 63 126 0.0 1.0 0.00 0.00 0.00 93 1007.8
20260904052848 63 126 0.0 1.0 0.00 0.00 0.00 94 1008.1
20260904052338 62 126 0.0 1.0 0.00 0.00 0.00 92 1008.1
20260904051828 62 126 0.0 1.0 0.00 0.00 0.00 92 1008.1
20260904051336 63 126 0.0 1.0 0.00 0.00 0.00 91 1008.3
20260904050821 63 126 0.0 1.0 0.00 0.00 0.00 91 1008.3
20260904050348 63 126 0.0 0.0 0.00 0.00 0.00 91 1008.3
20260904045813 63 126 0.0 0.0 0.00 0.00 0.00 90 1008.4
20260904045353 63 126 0.0 0.0 0.00 0.00 0.00 90 1008.4
20260904044838 63 126 0.0 2.0 0.00 0.00 0.00 90 1008.4
20260904044343 63 126 1.0 2.0 0.00 0.00 0.00 90 1008.5
20260904043829 63 126 0.0 1.0 0.00 0.00 0.00 90 1008.5
20260904043356 63 126 0.0 0.0 0.00 0.00 0.00 89 1008.5
20260904042827 64 126 0.0 2.0 0.00 0.00 0.00 89 1008.4
20260904042354 64 126 0.0 2.0 0.00 0.00 0.00 88 1008.4
20260904041831 64 126 0.0 2.0 0.00 0.00 0.00 88 1008.4
20260904041320 64 88 0.0 1.0 0.00 0.00 0.00 89 1008.4
20260904040846 64 88 0.0 0.0 0.00 0.00 0.00 88 1008.4
20260904040326 64 88 0.0 0.0 0.00 0.00 0.00 87 1008.4
20260904035817 64 88 0.0 0.0 0.00 0.00 0.00 87 1008.4
20260904035317 65 88 0.0 0.0 0.00 0.00 0.00 87 1008.4
20260904034847 65 88 0.0 1.0 0.00 0.00 0.00 86 1008.4
20260904034349 65 88 0.0 1.0 0.00 0.00 0.00 87 1008.4
20260904033826 65 88 0.0 1.0 0.00 0.00 0.00 86 1008.4
20260904033315 66 88 0.0 0.0 0.00 0.00 0.00 85 1008.4
20260904032820 66 88 0.0 0.0 0.00 0.00 0.00 85 1008.6
20260904032327 66 88 0.0 0.0 0.00 0.00 0.00 84 1008.6
20260904031900 67 88 0.0 0.0 0.00 0.00 0.00 84 1008.6
20260904031332 67 88 0.0 2.0 0.00 0.00 0.00 84 1008.8
20260904030812 67 88 0.0 2.0 0.00 0.00 0.00 83 1008.8
20260904030323 68 88 0.0 2.0 0.00 0.00 0.00 82 1008.8
20260904025835 68 88 1.0 2.0 0.00 0.00 0.00 81 1008.9
20260904025329 68 120 0.0 1.0 0.00 0.00 0.00 82 1008.9
20260904024824 68 120 0.0 1.0 0.00 0.00 0.00 81 1008.9
20260904024339 68 120 1.0 2.0 0.00 0.00 0.00 81 1009.0
20260904023819 68 120 1.0 2.0 0.00 0.00 0.00 81 1009.0
20260904023334 68 120 1.0 3.0 0.00 0.00 0.00 80 1009.0
20260904022841 69 120 1.0 3.0 0.00 0.00 0.00 81 1008.9
20260904022341 69 255 1.0 4.0 0.00 0.00 0.00 80 1008.9
20260904021829 69 117 1.0 4.0 0.00 0.00 0.00 77 1008.9
20260904021316 69 319 1.0 7.0 0.00 0.00 0.00 79 1009.0
20260904020829 69 71 2.0 7.0 0.00 0.00 0.00 77 1009.0
20260904020328 69 98 1.0 3.0 0.00 0.00 0.00 80 1009.0
20260904015819 69 69 2.0 4.0 0.00 0.00 0.00 80 1008.9
20260904015345 69 69 2.0 4.0 0.00 0.00 0.00 81 1008.9
20260904014839 69 108 327.0 4.0 0.00 0.00 0.00 1008.9
20260904014328 0 93 327.0 2.0 0.00 0.00 0.00 1008.8
20260904013831 0 0.0 0.0 0.00 0.00 0.00 1008.8
20260904013315 0 0.0 0.0 0.00 0.00 0.00 1008.8
20260904012819 0 0.0 0.0 0.00 0.00 0.00 1008.9
20260904012333 0 0.0 0.0 0.00 0.00 0.00 1008.9
20260904011842 0 0.0 0.0 0.00 0.00 0.00 1008.9
20260904011344 0 0.0 0.0 0.00 0.00 0.00 1008.9
20260904010826 0 0.0 0.0 0.00 0.00 0.00 1008.9
20260904010323 0 0.0 0.0 0.00 0.00 0.00 1008.9
20260904005848 0 0.0 0.0 0.00 0.00 0.00 1008.9
20260904005336 0 0.0 0.0 0.00 0.00 0.00 1008.9
20260904004823 0 0.0 0.0 0.00 0.00 0.00 1008.9
20260904004340 0 0.0 0.0 0.00 0.00 0.00 1008.8
20260904003844 0 0.0 0.0 0.00 0.00 0.00 1008.8
20260904003349 0 0.0 0.0 0.00 0.00 0.00 1008.8
20260904002814 0 0.0 0.0 0.00 0.00 0.00 1008.5
20260904002320 0 0.0 0.0 0.00 0.00 0.00 1008.5
20260904001826 0 0.0 0.0 0.00 0.00 0.00 1008.5
20260904001326 0 0.0 0.0 0.00 0.00 0.00 1008.2
20260904000818 0 0.0 0.0 0.00 0.00 0.00 1008.2
20260904000323 0 0.0 0.0 0.00 0.00 0.00 1008.2
20260903235823 0 0.0 0.0 0.00 0.00 0.00 1008.0
20260903235332 0 0.0 0.0 0.00 0.00 0.00 1008.0
20260903234858 0 0.0 0.0 0.00 0.00 0.00 1008.0
20260903234328 0 0.0 0.0 0.00 0.00 0.00 1007.8
20260903233846 0 0.0 0.0 0.00 0.00 0.00 1007.8
20260903233317 0 0.0 0.0 0.00 0.00 0.00 1007.8
20260903232823 0 0.0 0.0 0.00 0.00 0.00 1007.8
20260903232336 0 0.0 0.0 0.00 0.00 0.00 1007.8
20260903231828 0 0.0 0.0 0.00 0.00 0.00 1007.8
20260903231315 0 0.0 0.0 0.00 0.00 0.00 1007.9
20260903230853 0 0.0 0.0 0.00 0.00 0.00 1007.9
20260903230339 0 0.0 0.0 0.00 0.00 0.00 1007.9
20260903225825 0 0.0 0.0 0.00 0.00 0.00 1007.9
20260903224813 0 0.0 0.0 0.00 0.00 0.00 1007.9
20260903224318 0 0.0 0.0 0.00 0.00 0.00 1008.0
20260903223824 0 0.0 0.0 0.00 0.00 0.00 1008.0
20260903223322 0 0.0 0.0 0.00 0.00 0.00 1008.0
20260903222834 0 0.0 0.0 0.00 0.00 0.00 1007.9
20260903222327 0 0.0 0.0 0.00 0.00 0.00 1007.9
20260903221813 0 0.0 0.0 0.00 0.00 0.00 1007.9
20260903221327 0 0.0 0.0 0.00 0.00 0.00 1007.7
20260903220833 0 0.0 0.0 0.00 0.00 0.00 1007.7
20260903220400 0 0.0 0.0 0.00 0.00 0.00 1007.7
20260903215840 0 0.0 0.0 0.00 0.00 0.00 1007.8
20260903215345 0 0.0 0.0 0.00 0.00 0.00 1007.8
20260903214835 0 0.0 0.0 0.00 0.00 0.00 1007.8
20260903214344 0 0.0 0.0 0.00 0.00 0.00 1007.9
20260903213821 0 0.0 0.0 0.00 0.00 0.00 1007.9
20260903213329 0 0.0 0.0 0.00 0.00 0.00 1007.9
20260903212834 0 0.0 0.0 0.00 0.00 0.00 1008.3
20260903212321 0 0.0 0.0 0.00 0.00 0.00 1008.3
20260903211827 0 0.0 0.0 0.00 0.00 0.00 1008.3
20260903211332 0 0.0 0.0 0.00 0.00 0.00 1007.9
20260903210814 0 0.0 0.0 0.00 0.00 0.00 1007.9
20260903210315 0 0.0 0.0 0.00 0.00 0.00 1007.9
20260903205853 0 0.0 0.0 0.00 0.00 0.00 1007.9
20260903205314 0 0.0 0.0 0.00 0.00 0.00 1007.9
20260903204826 0 0.0 0.0 0.00 0.00 0.00 1007.9
20260903204350 0 0.0 0.0 0.00 0.00 0.00 1007.9
20260903203817 0 0.0 0.0 0.00 0.00 0.00 1007.9
20260903203322 0 0.0 0.0 0.00 0.00 0.00 1007.9
20260903202842 0 0.0 0.0 0.00 0.00 0.00 1007.9
20260903202314 0 0.0 0.0 0.00 0.00 0.00 1007.9
20260903201831 0 0.0 0.0 0.00 0.00 0.00 1007.9
20260903201336 0 0.0 0.0 0.00 0.00 0.00 1007.9
20260903200830 0 0.0 0.0 0.00 0.00 0.00 1007.9
20260903195826 0 0.0 0.0 0.00 0.00 0.00 1008.1
20260903195320 0 0.0 0.0 0.00 0.00 0.00 1008.1
20260903194845 0 0.0 0.0 0.00 0.00 0.00 1008.1
20260903194351 0 0.0 0.0 0.00 0.00 0.00 1008.2
20260903193823 0 0.0 0.0 0.00 0.00 0.00 1008.2
20260903193327 0 0.0 0.0 0.00 0.00 0.00 1008.2
20260903192817 0 0.0 0.0 0.00 0.00 0.00 1008.4
20260903192325 0 0.0 0.0 0.00 0.00 0.00 1008.4
20260903191831 0 0.0 0.0 0.00 0.00 0.00 1008.4
20260903191342 0 0.0 0.0 0.00 0.00 0.00 1008.4
20260903190842 0 0.0 0.0 0.00 0.00 0.00 1008.4
20260903190314 0 0.0 0.0 0.00 0.00 0.00 1008.4
20260903185833 0 0.0 0.0 0.00 0.00 0.00 1008.5
20260903185336 79 237 2.0 7.0 0.00 0.00 0.00 78 1008.5
20260903184825 79 237 2.0 7.0 0.00 0.00 0.00 78 1008.5
20260903184341 79 172 2.0 7.0 0.00 0.00 0.00 79 1008.5
20260903183818 79 19 2.0 7.0 0.00 0.00 0.00 84 1008.5
20260903183348 79 116 2.0 6.0 0.00 0.00 0.00 84 1008.5
20260903182829 78 67 327.0 6.0 0.00 0.00 0.00 1008.7
20260903182313 77 201 327.0 6.0 0.00 0.00 0.00 1008.7
20260903181820 0 0.0 0.0 0.00 0.00 0.00 1008.7
20260903181325 0 0.0 0.0 0.00 0.00 0.00 1008.9
20260903180819 0 0.0 0.0 0.00 0.00 0.00 1008.9
20260903180405 0 0.0 0.0 0.00 0.00 0.00 1008.9
20260903175814 0 0.0 0.0 0.00 0.00 0.00 1009.0
20260903175320 0 0.0 0.0 0.00 0.00 0.00 1009.0
20260903174342 0 0.0 0.0 0.00 0.00 0.00 1009.1
20260903173815 0 0.0 0.0 0.00 0.00 0.00 1009.1
20260903173336 0 0.0 0.0 0.00 0.00 0.00 1009.1
20260903172814 0 0.0 0.0 0.00 0.00 0.00 1009.2
20260903172320 0 0.0 0.0 0.00 0.00 0.00 1009.2
20260903171815 0 0.0 0.0 0.00 0.00 0.00 1009.2
20260903171312 0 0.0 0.0 0.00 0.00 0.00 1009.4
20260903170825 0 0.0 0.0 0.00 0.00 0.00 1009.4
20260903170312 0 0.0 0.0 0.00 0.00 0.00 1009.4
20260903165817 0 0.0 0.0 0.00 0.00 0.00 1009.5
20260903165339 0 0.0 0.0 0.00 0.00 0.00 1009.5
20260903164824 0 0.0 0.0 0.00 0.00 0.00 1009.5
20260903164328 0 0.0 0.0 0.00 0.00 0.00 1009.7
20260903163347 71 209 1.0 3.0 0.00 0.00 0.00 88 1009.7
20260903162824 71 150 1.0 3.0 0.00 0.00 0.00 88 1009.9
20260903162323 71 136 1.0 3.0 0.00 0.00 0.00 88 1009.9
20260903161828 71 107 1.0 3.0 0.00 0.00 0.00 87 1009.9
20260903161340 71 86 1.0 2.0 0.00 0.00 0.00 88 1009.9
20260903160824 72 136 0.0 2.0 0.00 0.00 0.00 88 1009.9
20260903160340 72 189 1.0 3.0 0.00 0.00 0.00 88 1009.9
20260903155845 72 133 1.0 3.0 0.00 0.00 0.00 88 1009.9
20260903155331 72 159 1.0 3.0 0.00 0.00 0.00 87 1009.9
20260903154813 72 130 1.0 5.0 0.00 0.00 0.00 88 1009.9
20260903154320 72 48 1.0 4.0 0.00 0.00 0.00 89 1010.0
20260903153823 72 211 1.0 5.0 0.00 0.00 0.00 88 1010.0
20260903153327 71 155 1.0 3.0 0.00 0.00 0.00 89 1010.0
20260903152832 71 129 1.0 3.0 0.00 0.00 0.00 89 1010.1
20260903152341 71 121 1.0 4.0 0.00 0.00 0.00 90 1010.1
20260903151814 71 5 1.0 3.0 0.00 0.00 0.00 90 1010.1
20260903151329 71 339 1.0 3.0 0.00 0.00 0.00 91 1010.1
20260903150819 71 173 0.0 3.0 0.00 0.00 0.00 91 1010.1
20260903150313 70 214 0.0 1.0 0.00 0.00 0.00 91 1010.1
20260903145831 70 214 0.0 1.0 0.00 0.00 0.00 91 1010.1
20260903145326 70 219 0.0 1.0 0.00 0.00 0.00 91 1010.1
20260903144831 70 217 0.0 1.0 0.00 0.00 0.00 91 1010.1
20260903144319 69 185 0.0 2.0 0.00 0.00 0.00 91 1010.1
20260903143817 69 185 0.0 2.0 0.00 0.00 0.00 92 1010.1
20260903143327 69 134 0.0 2.0 0.00 0.00 0.00 92 1010.1
20260903142834 69 303 0.0 2.0 0.00 0.00 0.00 93 1010.1
20260903142319 68 303 0.0 2.0 0.00 0.00 0.00 93 1010.1
20260903141827 68 303 0.0 2.0 0.00 0.00 0.00 93 1010.1
20260903141334 68 303 0.0 2.0 0.00 0.00 0.00 93 1010.1
20260903140814 68 231 0.0 1.0 0.00 0.00 0.00 93 1010.1
20260903140342 68 231 0.0 1.0 0.00 0.00 0.00 93 1010.1
20260903135812 68 231 0.0 1.0 0.00 0.00 0.00 93 1010.1
20260903135324 67 231 0.0 0.0 0.00 0.00 0.00 94 1010.1
20260903134827 67 231 0.0 0.0 0.00 0.00 0.00 93 1010.1
20260903134343 67 231 0.0 0.0 0.00 0.00 0.00 93 1010.3
20260903133822 67 231 0.0 0.0 0.00 0.00 0.00 93 1010.3
20260903133330 67 231 0.0 0.0 0.00 0.00 0.00 93 1010.3
20260903132817 67 231 0.0 0.0 0.00 0.00 0.00 93 1010.3
20260903132342 67 231 0.0 0.0 0.00 0.00 0.00 93 1010.3
20260903131834 67 231 0.0 0.0 0.00 0.00 0.00 93 1010.3
20260903131335 67 231 0.0 0.0 0.00 0.00 0.00 93 1010.1
20260903130835 67 231 0.0 0.0 0.00 0.00 0.00 93 1010.1
20260903130322 67 231 0.0 0.0 0.00 0.00 0.00 94 1010.1
20260903125831 67 231 0.0 2.0 0.00 0.00 0.00 94 1010.2
20260903125318 67 231 0.0 2.0 0.00 0.00 0.00 94 1010.2
20260903124814 67 231 1.0 3.0 0.00 0.00 0.00 94 1010.2
20260903124334 67 209 1.0 3.0 0.00 0.00 0.00 94 1010.3
20260903123828 66 136 0.0 3.0 0.00 0.00 0.00 94 1010.3
20260903123332 66 141 0.0 3.0 0.00 0.00 0.00 94 1010.3
20260903122823 66 141 1.0 3.0 0.00 0.00 0.00 94 1010.4